Ketchikan, AK

8:24 AM AKDT on October 16, 2018 (GMT -0800)
Ketchikan International

Weather History for PAKT - October, 2018

Change the Weather History Date:

Wednesday, October 3, 2018

  Actual Average Record
Temperature  
Mean Temperature 43 °F -  
Max Temperature 53 °F 54 °F 64 °F (1967)
Min Temperature 35 °F 42 °F 30 °F (2006)
Degree Days  
Heating Degree Days 22    
Moisture  
Dew Point 33 °F    
Average Humidity 71    
Maximum Humidity 89    
Minimum Humidity 44    
Precipitation  
Precipitation 0.00 in - - ()
Sea Level Pressure  
Sea Level Pressure 30.00 in    
Wind  
Wind Speed 3 mph (SSE)    
Max Wind Speed 10 mph    
Max Gust Speed -    
Visibility 10 miles    
Events      
Averages and records for this station are not official NWS values.
T = Trace of Precipitation, MM = Missing Value Source: NWS Daily Summary

Daily Weather History Graph

Daily Weather History Graph

Search for Another Location

Airport or City:

Astronomy

Oct. 03, 2018 Rise Set
Actual Time 6:53 AM AKDT 6:16 PM AKDT
Civil Twilight 6:17 AM AKDT 6:53 PM AKDT
Nautical Twilight 5:34 AM AKDT 7:35 PM AKDT
Astronomical Twilight 4:50 AM AKDT 8:19 PM AKDT
Moon No Moon Rise 4:15 PM AKDT (10/3)
Length of Visible Light 12h 35m
Length of Day
11h 22m
Waning Crescent, 34% of the Moon is Illuminated
Oct 3
Waning Crescent
Oct 8
New
Oct 16
First Quarter
Oct 24
Full
Oct 31
Last Quarter

Hourly Weather History & Observations

Time (AKDT) Temp. Windchill Dew Point Humidity Pressure Visibility Wind Dir Wind Speed Gust Speed Precip Events Conditions
12:53 AM 36.0 °F - 26.1 °F 67% 30.00 in 10.0 mi Calm Calm - N/A   Clear
1:53 AM 35.1 °F - 26.1 °F 70% 29.99 in 10.0 mi Calm Calm - N/A   Clear
2:53 AM 35.1 °F - 28.0 °F 76% 30.00 in 10.0 mi Calm Calm - N/A   Clear
3:53 AM 36.0 °F 33.3 °F 28.0 °F 73% 30.00 in 10.0 mi SSW 3.5 mph - N/A   Clear
4:53 AM 37.0 °F 32.4 °F 30.9 °F 79% 29.99 in 10.0 mi SE 5.8 mph - N/A   Clear
5:53 AM 37.9 °F - 30.9 °F 76% 29.99 in 10.0 mi Calm Calm - N/A   Clear
6:06 AM 36.0 °F 33.3 °F 30.0 °F 79% 29.98 in 10.0 mi SE 3.5 mph - N/A   Clear
6:53 AM 35.1 °F - 30.9 °F 85% 29.99 in 10.0 mi Calm Calm - N/A   Clear
7:53 AM 37.4 °F 34.9 °F 30.2 °F 75% 30.00 in 10.0 mi South 3.5 mph - N/A   Clear
8:53 AM 42.8 °F 41.1 °F 33.8 °F 70% 30.00 in 10.0 mi ESE 3.5 mph - N/A   Clear
9:53 AM 44.6 °F 40.7 °F 35.6 °F 71% 30.01 in 10.0 mi ESE 6.9 mph - N/A   Clear
10:53 AM 48.2 °F - 33.8 °F 58% 30.00 in 10.0 mi SE 9.2 mph - N/A   Clear
11:53 AM 51.8 °F - 33.8 °F 50% 30.01 in 10.0 mi ESE 8.1 mph - N/A   Clear
12:53 PM 51.8 °F - 30.2 °F 44% 30.01 in 10.0 mi SE 10.4 mph - N/A   Clear
1:53 PM 51.8 °F - 30.2 °F 44% 30.01 in 10.0 mi SSE 6.9 mph - N/A   Clear
2:53 PM 51.8 °F - 33.8 °F 50% 30.01 in 10.0 mi SSE 5.8 mph - N/A   Clear
3:53 PM 51.8 °F - 33.8 °F 50% 30.01 in 10.0 mi SSE 8.1 mph - N/A   Clear
4:53 PM 50.0 °F - 35.6 °F 58% 30.00 in 10.0 mi SSE 5.8 mph - N/A   Clear
5:53 PM 46.9 °F - 37.9 °F 71% 30.00 in 10.0 mi SSE 5.8 mph - N/A   Clear
6:53 PM 42.1 °F 39.2 °F 34.0 °F 73% 30.01 in 10.0 mi South 4.6 mph - N/A   Clear
7:53 PM 39.0 °F - 34.0 °F 82% 30.01 in 10.0 mi Calm Calm - N/A   Clear
8:53 PM 42.1 °F 39.2 °F 37.0 °F 82% 30.00 in 10.0 mi SSE 4.6 mph - N/A   Clear
9:50 PM 41.0 °F 39.0 °F 37.4 °F 87% 30.00 in 10.0 mi SSE 3.5 mph - N/A   Mostly Cloudy
9:53 PM 39.9 °F - 36.0 °F 86% 30.01 in 10.0 mi Calm Calm - N/A   Mostly Cloudy
10:24 PM 37.0 °F - 34.0 °F 89% 30.00 in 10.0 mi Calm Calm - N/A   Scattered Clouds
10:53 PM 37.9 °F 34.4 °F 35.1 °F 89% 30.01 in 10.0 mi SSE 4.6 mph - N/A   Clear
11:53 PM 39.9 °F 36.7 °F 37.0 °F 89% 30.00 in 10.0 mi SSE 4.6 mph - N/A   Partly Cloudy